Time,TemperatureF,DewpointF,PressureIn,WindDirection,WindDirectionDegrees,WindSpeedMPH,WindSpeedGustMPH,Humidity,HourlyPrecipIn,Conditions,Clouds,dailyrainin,SoftwareType,DateUTC
2013-10-01 00:03:00,67.2,51.9,28.69,SSW,203,3.8,5.5,58,0.00,,,0.00,WUHU216HW,2013-10-01 05:03:00,
2013-10-01 00:08:00,67.2,51.9,28.69,SSW,203,2.6,3.8,58,0.00,,,0.00,WUHU216HW,2013-10-01 05:08:00,
2013-10-01 00:13:00,67.2,51.9,28.70,SSW,203,0.0,2.6,58,0.00,,,0.00,WUHU216HW,2013-10-01 05:13:00,
2013-10-01 00:18:00,67.2,51.9,28.70,SSW,203,0.0,2.4,58,0.00,,,0.00,WUHU216HW,2013-10-01 05:18:00,
2013-10-01 00:24:00,67.1,51.8,28.70,SSW,203,0.0,2.6,58,0.00,,,0.00,WUHU216HW,2013-10-01 05:24:00,
2013-10-01 00:29:00,67.1,51.8,28.70,SSW,203,4.7,6.0,58,0.00,,,0.00,WUHU216HW,2013-10-01 05:29:00,
2013-10-01 00:34:00,66.9,51.6,28.70,SSW,203,0.0,6.0,58,0.00,,,0.00,WUHU216HW,2013-10-01 05:34:00,
2013-10-01 00:39:00,66.9,51.6,28.70,SSW,203,0.0,3.3,58,0.00,,,0.00,WUHU216HW,2013-10-01 05:39:00,
2013-10-01 00:44:00,66.7,51.9,28.70,SSW,203,0.8,0.8,59,0.00,,,0.00,WUHU216HW,2013-10-01 05:44:00,
2013-10-01 00:49:00,66.7,51.9,28.70,SSW,203,1.5,6.7,59,0.00,,,0.00,WUHU216HW,2013-10-01 05:49:00,
2013-10-01 00:54:00,66.7,51.9,28.70,SSW,203,0.8,6.7,59,0.00,,,0.00,WUHU216HW,2013-10-01 05:54:00,
2013-10-01 00:59:00,66.7,51.9,28.70,SSW,203,3.5,3.5,59,0.00,,,0.00,WUHU216HW,2013-10-01 05:59:00,
2013-10-01 01:04:00,66.7,51.9,28.70,SSW,203,0.0,3.5,59,0.00,,,0.00,WUHU216HW,2013-10-01 06:04:00,
2013-10-01 01:09:00,66.9,52.1,28.70,SSW,203,7.8,7.8,59,0.00,,,0.00,WUHU216HW,2013-10-01 06:09:00,
2013-10-01 01:14:00,66.9,52.1,28.70,SSW,203,0.0,7.8,59,0.00,,,0.00,WUHU216HW,2013-10-01 06:14:00,
2013-10-01 01:19:00,66.9,52.1,28.70,SW,225,6.4,6.4,59,0.00,,,0.00,WUHU216HW,2013-10-01 06:19:00,
2013-10-01 01:24:00,66.7,51.9,28.69,SSW,203,0.0,6.4,59,0.00,,,0.00,WUHU216HW,2013-10-01 06:24:00,
2013-10-01 01:30:00,66.7,51.9,28.69,SSW,203,0.0,0.0,59,0.00,,,0.00,WUHU216HW,2013-10-01 06:30:00,
2013-10-01 01:35:00,66.7,51.9,28.70,SSW,203,7.1,7.1,59,0.00,,,0.00,WUHU216HW,2013-10-01 06:35:00,
2013-10-01 01:40:00,66.7,52.4,28.69,South,180,5.5,7.1,60,0.00,,,0.00,WUHU216HW,2013-10-01 06:40:00,
2013-10-01 01:45:00,66.7,52.4,28.70,SW,225,5.3,7.1,60,0.00,,,0.00,WUHU216HW,2013-10-01 06:45:00,
2013-10-01 01:50:00,66.7,52.4,28.70,SW,225,0.0,5.5,60,0.00,,,0.00,WUHU216HW,2013-10-01 06:50:00,
2013-10-01 01:55:00,66.7,52.4,28.70,SSW,203,3.3,3.3,60,0.00,,,0.00,WUHU216HW,2013-10-01 06:55:00,
2013-10-01 02:00:00,66.5,52.3,28.70,SSW,203,0.0,3.3,60,0.00,,,0.00,WUHU216HW,2013-10-01 07:00:00,
2013-10-01 02:05:00,66.3,52.5,28.70,SSW,203,0.0,2.9,61,0.00,,,0.00,WUHU216HW,2013-10-01 07:05:00,
2013-10-01 02:10:00,66.3,52.5,28.69,SSW,203,0.0,0.0,61,0.00,,,0.00,WUHU216HW,2013-10-01 07:10:00,
2013-10-01 02:15:00,66.2,52.3,28.70,SSW,203,0.0,0.0,61,0.00,,,0.00,WUHU216HW,2013-10-01 07:15:00,
2013-10-01 02:21:00,66.2,52.3,28.70,SSW,203,0.0,0.0,61,0.00,,,0.00,WUHU216HW,2013-10-01 07:21:00,
2013-10-01 02:26:00,66.0,52.2,28.69,SSW,203,0.0,0.0,61,0.00,,,0.00,WUHU216HW,2013-10-01 07:26:00,
2013-10-01 02:31:00,66.0,52.2,28.69,SSW,203,2.9,2.9,61,0.00,,,0.00,WUHU216HW,2013-10-01 07:31:00,
2013-10-01 02:36:00,66.0,52.2,28.70,SW,225,7.1,7.1,61,0.00,,,0.00,WUHU216HW,2013-10-01 07:36:00,
2013-10-01 02:41:00,66.0,52.2,28.70,SSW,203,0.0,7.1,61,0.00,,,0.00,WUHU216HW,2013-10-01 07:41:00,
2013-10-01 02:46:00,66.0,52.2,28.69,SW,225,0.0,2.0,61,0.00,,,0.00,WUHU216HW,2013-10-01 07:46:00,
2013-10-01 02:51:00,66.0,52.2,28.69,SSW,203,0.0,0.0,61,0.00,,,0.00,WUHU216HW,2013-10-01 07:51:00,
2013-10-01 02:56:00,65.8,52.4,28.69,SSW,203,0.0,0.0,62,0.00,,,0.00,WUHU216HW,2013-10-01 07:56:00,
2013-10-01 03:01:00,65.6,52.2,28.69,SSW,203,0.0,2.9,62,0.00,,,0.00,WUHU216HW,2013-10-01 08:01:00,
2013-10-01 03:06:00,65.3,51.9,28.69,SW,225,3.8,3.8,62,0.00,,,0.00,WUHU216HW,2013-10-01 08:06:00,
2013-10-01 03:11:00,65.1,52.1,28.69,SSW,203,0.0,6.0,63,0.00,,,0.00,WUHU216HW,2013-10-01 08:11:00,
2013-10-01 03:17:00,65.1,52.1,28.69,SSW,203,0.0,6.0,63,0.00,,,0.00,WUHU216HW,2013-10-01 08:17:00,
2013-10-01 03:22:00,65.1,52.1,28.69,SSW,203,0.0,6.7,63,0.00,,,0.00,WUHU216HW,2013-10-01 08:22:00,
2013-10-01 03:27:00,65.1,52.1,28.69,SW,225,0.0,6.7,63,0.00,,,0.00,WUHU216HW,2013-10-01 08:27:00,
2013-10-01 03:32:00,65.1,52.1,28.69,SSW,203,2.0,4.6,63,0.00,,,0.00,WUHU216HW,2013-10-01 08:32:00,
2013-10-01 03:37:00,65.3,52.3,28.69,SSW,203,7.1,7.1,63,0.00,,,0.00,WUHU216HW,2013-10-01 08:37:00,
2013-10-01 03:42:00,65.3,52.3,28.69,SSW,203,7.3,7.3,63,0.00,,,0.00,WUHU216HW,2013-10-01 08:42:00,
2013-10-01 03:47:00,65.4,52.5,28.69,SSW,203,0.4,7.3,63,0.00,,,0.00,WUHU216HW,2013-10-01 08:47:00,
2013-10-01 03:52:00,65.4,52.5,28.69,SW,225,0.0,0.4,63,0.00,,,0.00,WUHU216HW,2013-10-01 08:52:00,
2013-10-01 03:57:00,65.3,52.3,28.71,SSW,203,0.0,0.4,63,0.00,,,0.00,WUHU216HW,2013-10-01 08:57:00,
2013-10-01 04:02:00,64.7,52.2,28.72,SW,225,0.0,0.0,64,0.00,,,0.00,WUHU216HW,2013-10-01 09:02:00,
2013-10-01 04:07:00,64.5,52.0,28.71,SSW,203,2.9,2.9,64,0.00,,,0.00,WUHU216HW,2013-10-01 09:07:00,
2013-10-01 04:12:00,64.9,52.4,28.71,SW,225,0.0,4.9,64,0.00,,,0.00,WUHU216HW,2013-10-01 09:12:00,
2013-10-01 04:17:00,65.1,52.5,28.71,SSW,203,1.7,4.9,64,0.00,,,0.00,WUHU216HW,2013-10-01 09:17:00,
2013-10-01 04:23:00,65.1,52.5,28.70,SW,225,8.2,8.2,64,0.00,,,0.00,WUHU216HW,2013-10-01 09:23:00,
2013-10-01 04:28:00,64.7,52.2,28.70,SSW,203,0.0,8.2,64,0.00,,,0.00,WUHU216HW,2013-10-01 09:28:00,
2013-10-01 04:33:00,64.4,51.9,28.70,SSW,203,3.5,8.2,64,0.00,,,0.00,WUHU216HW,2013-10-01 09:33:00,
2013-10-01 04:38:00,63.8,51.8,28.70,SW,225,0.0,3.5,65,0.00,,,0.00,WUHU216HW,2013-10-01 09:38:00,
2013-10-01 04:43:00,63.3,51.3,28.70,SW,225,4.6,4.6,65,0.00,,,0.00,WUHU216HW,2013-10-01 09:43:00,
2013-10-01 04:48:00,63.1,51.5,28.70,SW,225,6.7,6.7,66,0.00,,,0.00,WUHU216HW,2013-10-01 09:48:00,
2013-10-01 04:53:00,63.1,51.5,28.70,SW,225,0.0,6.7,66,0.00,,,0.00,WUHU216HW,2013-10-01 09:53:00,
2013-10-01 04:59:00,63.1,51.5,28.70,SW,225,8.0,8.0,66,0.00,,,0.00,WUHU216HW,2013-10-01 09:59:00,
2013-10-01 05:04:00,62.9,51.3,28.69,SSW,203,6.4,8.0,66,0.00,,,0.00,WUHU216HW,2013-10-01 10:04:00,
2013-10-01 05:09:00,62.7,51.2,28.69,SSW,203,3.5,7.8,66,0.00,,,0.00,WUHU216HW,2013-10-01 10:09:00,
2013-10-01 05:14:00,62.6,51.0,28.69,SW,225,0.0,7.8,66,0.00,,,0.00,WUHU216HW,2013-10-01 10:14:00,
2013-10-01 05:19:00,62.4,51.2,28.69,SSW,203,7.8,7.8,67,0.00,,,0.00,WUHU216HW,2013-10-01 10:19:00,
2013-10-01 05:24:00,62.4,51.2,28.70,SW,225,7.1,7.8,67,0.00,,,0.00,WUHU216HW,2013-10-01 10:24:00,
2013-10-01 05:29:00,62.2,51.1,28.69,SW,225,3.1,7.8,67,0.00,,,0.00,WUHU216HW,2013-10-01 10:29:00,
2013-10-01 05:34:00,62.0,50.9,28.69,SSW,203,3.3,7.1,67,0.00,,,0.00,WUHU216HW,2013-10-01 10:34:00,
2013-10-01 05:39:00,62.0,51.3,28.70,SW,225,1.5,3.3,68,0.00,,,0.00,WUHU216HW,2013-10-01 10:39:00,
2013-10-01 05:44:00,61.8,50.8,28.70,SW,225,4.2,4.2,67,0.00,,,0.00,WUHU216HW,2013-10-01 10:44:00,
2013-10-01 05:49:00,61.7,50.6,28.70,SSW,203,5.1,5.1,67,0.00,,,0.00,WUHU216HW,2013-10-01 10:49:00,
2013-10-01 05:54:00,61.5,50.9,28.70,SSW,203,7.8,7.8,68,0.00,,,0.00,WUHU216HW,2013-10-01 10:54:00,
2013-10-01 05:59:00,61.5,50.9,28.71,SW,225,0.0,7.8,68,0.00,,,0.00,WUHU216HW,2013-10-01 10:59:00,
2013-10-01 06:04:00,61.3,50.7,28.71,SW,225,0.0,7.8,68,0.00,,,0.00,WUHU216HW,2013-10-01 11:04:00,
2013-10-01 06:10:00,61.1,50.5,28.72,SSW,203,0.0,7.3,68,0.00,,,0.00,WUHU216HW,2013-10-01 11:10:00,
2013-10-01 06:15:00,61.1,50.5,28.72,SSW,203,0.0,0.0,68,0.00,,,0.00,WUHU216HW,2013-10-01 11:15:00,
2013-10-01 06:20:00,61.3,51.1,28.73,SSW,203,0.0,0.0,69,0.00,,,0.00,WUHU216HW,2013-10-01 11:20:00,
2013-10-01 06:25:00,61.3,51.1,28.73,SSW,203,0.0,0.0,69,0.00,,,0.00,WUHU216HW,2013-10-01 11:25:00,
2013-10-01 06:30:00,61.1,50.9,28.73,SSW,203,0.0,0.0,69,0.00,,,0.00,WUHU216HW,2013-10-01 11:30:00,
2013-10-01 06:35:00,61.1,50.9,28.73,South,180,0.0,0.0,69,0.00,,,0.00,WUHU216HW,2013-10-01 11:35:00,
2013-10-01 06:40:00,61.1,50.9,28.73,South,180,0.0,0.0,69,0.00,,,0.00,WUHU216HW,2013-10-01 11:40:00,
2013-10-01 06:45:00,61.1,50.9,28.73,South,180,0.0,0.0,69,0.00,,,0.00,WUHU216HW,2013-10-01 11:45:00,
2013-10-01 06:50:00,61.1,50.9,28.73,South,180,0.0,0.0,69,0.00,,,0.00,WUHU216HW,2013-10-01 11:50:00,
2013-10-01 06:55:00,61.1,50.9,28.74,SE,135,0.0,0.0,69,0.00,,,0.00,WUHU216HW,2013-10-01 11:55:00,
2013-10-01 07:00:00,60.9,50.8,28.74,SE,135,0.0,0.0,69,0.00,,,0.00,WUHU216HW,2013-10-01 12:00:00,
2013-10-01 07:05:00,60.9,50.8,28.74,SE,135,0.0,0.0,69,0.00,,,0.00,WUHU216HW,2013-10-01 12:05:00,
2013-10-01 07:10:00,60.9,50.8,28.74,SE,135,0.0,0.0,69,0.00,,,0.00,WUHU216HW,2013-10-01 12:10:00,
2013-10-01 07:16:00,61.1,50.9,28.74,SSE,158,0.0,0.0,69,0.00,,,0.00,WUHU216HW,2013-10-01 12:16:00,
2013-10-01 07:21:00,61.1,50.9,28.74,SSE,158,0.0,0.0,69,0.00,,,0.00,WUHU216HW,2013-10-01 12:21:00,
2013-10-01 07:26:00,61.1,50.9,28.74,SSE,158,0.0,0.0,69,0.00,,,0.00,WUHU216HW,2013-10-01 12:26:00,
2013-10-01 07:31:00,60.9,51.2,28.74,SSE,158,0.0,0.0,70,0.00,,,0.00,WUHU216HW,2013-10-01 12:31:00,
2013-10-01 07:36:00,60.6,50.9,28.74,SSE,158,0.0,0.0,70,0.00,,,0.00,WUHU216HW,2013-10-01 12:36:00,
2013-10-01 07:41:00,60.6,50.9,28.74,SSE,158,0.0,0.0,70,0.00,,,0.00,WUHU216HW,2013-10-01 12:41:00,
2013-10-01 07:46:00,60.6,50.9,28.75,SSE,158,0.0,0.0,70,0.00,,,0.00,WUHU216HW,2013-10-01 12:46:00,
2013-10-01 07:51:00,60.6,50.9,28.75,SSE,158,0.0,0.0,70,0.00,,,0.00,WUHU216HW,2013-10-01 12:51:00,
2013-10-01 07:56:00,60.9,51.2,28.75,SSE,158,0.0,0.0,70,0.00,,,0.00,WUHU216HW,2013-10-01 12:56:00,
2013-10-01 08:01:00,61.1,51.7,28.76,SSE,158,0.0,0.0,71,0.00,,,0.00,WUHU216HW,2013-10-01 13:01:00,
2013-10-01 08:06:00,61.3,51.5,28.76,SSE,158,0.0,0.0,70,0.00,,,0.00,WUHU216HW,2013-10-01 13:06:00,
2013-10-01 08:11:00,61.5,51.7,28.77,SSE,158,0.0,0.0,70,0.00,,,0.00,WUHU216HW,2013-10-01 13:11:00,
2013-10-01 08:16:00,61.5,51.7,28.77,SSE,158,0.0,0.0,70,0.00,,,0.00,WUHU216HW,2013-10-01 13:16:00,
2013-10-01 08:22:00,61.8,52.0,28.77,SSE,158,0.0,0.0,70,0.00,,,0.00,WUHU216HW,2013-10-01 13:22:00,
2013-10-01 08:27:00,61.8,52.0,28.77,SSE,158,0.0,0.0,70,0.00,,,0.00,WUHU216HW,2013-10-01 13:27:00,
2013-10-01 08:32:00,61.8,52.0,28.77,SSE,158,0.0,0.0,70,0.00,,,0.00,WUHU216HW,2013-10-01 13:32:00,
2013-10-01 08:37:00,62.2,52.3,28.78,SSE,158,0.0,0.0,70,0.00,,,0.00,WUHU216HW,2013-10-01 13:37:00,
2013-10-01 08:42:00,62.4,52.5,28.78,SSE,158,0.0,0.0,70,0.00,,,0.00,WUHU216HW,2013-10-01 13:42:00,
2013-10-01 08:47:00,62.7,52.8,28.78,SSE,158,0.0,0.0,70,0.00,,,0.00,WUHU216HW,2013-10-01 13:47:00,
2013-10-01 08:52:00,62.9,53.0,28.78,SSE,158,0.0,0.0,70,0.00,,,0.00,WUHU216HW,2013-10-01 13:52:00,
2013-10-01 08:57:00,63.6,53.7,28.79,SSE,158,0.0,0.0,70,0.00,,,0.00,WUHU216HW,2013-10-01 13:57:00,
2013-10-01 09:02:00,64.2,53.8,28.79,SSE,158,0.0,0.0,69,0.00,,,0.00,WUHU216HW,2013-10-01 14:02:00,
2013-10-01 09:07:00,64.5,53.7,28.79,SSE,158,0.0,0.0,68,0.00,,,0.00,WUHU216HW,2013-10-01 14:07:00,
2013-10-01 09:12:00,65.1,54.2,28.79,SSE,158,0.0,0.0,68,0.00,,,0.00,WUHU216HW,2013-10-01 14:12:00,
2013-10-01 09:17:00,65.6,54.3,28.79,SSE,158,0.0,0.0,67,0.00,,,0.00,WUHU216HW,2013-10-01 14:17:00,
2013-10-01 09:22:00,66.0,54.6,28.79,SSE,158,0.0,0.0,67,0.00,,,0.00,WUHU216HW,2013-10-01 14:22:00,
2013-10-01 09:28:00,66.0,54.2,28.79,SSE,158,0.0,0.0,66,0.00,,,0.00,WUHU216HW,2013-10-01 14:28:00,
2013-10-01 09:33:00,66.3,53.7,28.80,ENE,68,0.0,0.0,64,0.00,,,0.00,WUHU216HW,2013-10-01 14:33:00,
2013-10-01 09:38:00,66.3,53.7,28.80,ENE,68,0.0,0.0,64,0.00,,,0.00,WUHU216HW,2013-10-01 14:38:00,
2013-10-01 09:43:00,66.5,53.5,28.80,North,0,0.0,0.0,63,0.00,,,0.00,WUHU216HW,2013-10-01 14:43:00,
2013-10-01 09:48:00,66.5,53.5,28.80,NNE,23,0.0,0.0,63,0.00,,,0.00,WUHU216HW,2013-10-01 14:48:00,
2013-10-01 09:53:00,66.7,52.8,28.80,NNW,338,0.0,0.0,61,0.00,,,0.00,WUHU216HW,2013-10-01 14:53:00,
2013-10-01 09:58:00,66.7,52.8,28.80,NNW,338,0.0,0.0,61,0.00,,,0.00,WUHU216HW,2013-10-01 14:58:00,
2013-10-01 10:03:00,66.9,53.4,28.81,NNW,338,0.0,0.0,62,0.00,,,0.00,WUHU216HW,2013-10-01 15:03:00,
2013-10-01 10:09:00,67.1,53.2,28.81,NNW,338,0.0,0.0,61,0.00,,,0.00,WUHU216HW,2013-10-01 15:09:00,
2013-10-01 10:14:00,67.2,52.9,28.82,NNW,338,0.0,0.0,60,0.00,,,0.00,WUHU216HW,2013-10-01 15:14:00,
2013-10-01 10:19:00,67.6,52.7,28.82,North,0,0.0,0.0,59,0.00,,,0.00,WUHU216HW,2013-10-01 15:19:00,
2013-10-01 10:24:00,67.8,52.4,28.83,NNE,23,0.0,0.0,58,0.00,,,0.00,WUHU216HW,2013-10-01 15:24:00,
2013-10-01 10:29:00,68.1,52.7,28.82,NNE,23,0.0,0.0,58,0.00,,,0.00,WUHU216HW,2013-10-01 15:29:00,
2013-10-01 10:34:00,68.5,53.1,28.82,NNE,23,0.0,0.0,58,0.00,,,0.00,WUHU216HW,2013-10-01 15:34:00,
2013-10-01 10:39:00,68.7,52.8,28.83,NNE,23,0.0,0.0,57,0.00,,,0.00,WUHU216HW,2013-10-01 15:39:00,
2013-10-01 10:44:00,68.7,52.3,28.83,NNE,23,0.0,0.0,56,0.00,,,0.00,WUHU216HW,2013-10-01 15:44:00,
2013-10-01 10:49:00,69.0,52.1,28.83,NNE,23,0.0,0.0,55,0.00,,,0.00,WUHU216HW,2013-10-01 15:49:00,
2013-10-01 10:54:00,69.2,51.8,28.83,NNE,23,0.0,0.0,54,0.00,,,0.00,WUHU216HW,2013-10-01 15:54:00,
2013-10-01 11:00:00,69.4,52.0,28.83,NNE,23,0.0,0.0,54,0.00,,,0.00,WUHU216HW,2013-10-01 16:00:00,
2013-10-01 11:05:00,69.6,51.6,28.84,NNE,23,0.0,0.0,53,0.00,,,0.00,WUHU216HW,2013-10-01 16:05:00,
2013-10-01 11:10:00,69.9,51.0,28.83,NNE,23,0.0,0.0,51,0.00,,,0.00,WUHU216HW,2013-10-01 16:10:00,
2013-10-01 11:15:00,70.3,50.8,28.84,NNE,23,0.0,0.0,50,0.00,,,0.00,WUHU216HW,2013-10-01 16:15:00,
2013-10-01 11:20:00,70.1,50.6,28.84,NNE,23,0.0,0.0,50,0.00,,,0.00,WUHU216HW,2013-10-01 16:20:00,
2013-10-01 11:25:00,70.3,51.3,28.84,NNE,23,0.0,0.0,51,0.00,,,0.00,WUHU216HW,2013-10-01 16:25:00,
2013-10-01 11:30:00,70.7,51.1,28.85,NNE,23,0.0,0.0,50,0.00,,,0.00,WUHU216HW,2013-10-01 16:30:00,
2013-10-01 11:32:00,70.7,51.1,28.85,NNE,23,0.0,0.0,50,0.00,,,0.00,WUHU216HW,2013-10-01 16:32:00,
2013-10-01 11:37:00,70.8,51.3,28.85,NNE,23,0.0,0.0,50,0.00,,,0.00,WUHU216HW,2013-10-01 16:37:00,
2013-10-01 11:42:00,71.2,51.0,28.85,NNE,23,0.0,0.0,49,0.00,,,0.00,WUHU216HW,2013-10-01 16:42:00,
2013-10-01 11:47:00,71.4,50.0,28.85,NNE,23,0.0,0.0,47,0.00,,,0.00,WUHU216HW,2013-10-01 16:47:00,
2013-10-01 11:52:00,71.4,50.0,28.85,NNE,23,0.0,0.0,47,0.00,,,0.00,WUHU216HW,2013-10-01 16:52:00,
2013-10-01 11:57:00,71.7,50.3,28.85,NNE,23,0.0,0.0,47,0.00,,,0.00,WUHU216HW,2013-10-01 16:57:00,
2013-10-01 12:02:00,71.9,49.9,28.85,NNE,23,0.0,0.0,46,0.00,,,0.00,WUHU216HW,2013-10-01 17:02:00,
2013-10-01 12:07:00,72.1,50.6,28.85,NNE,23,0.0,0.0,47,0.00,,,0.00,WUHU216HW,2013-10-01 17:07:00,
2013-10-01 12:12:00,72.3,50.2,28.85,NNE,23,0.0,0.0,46,0.00,,,0.00,WUHU216HW,2013-10-01 17:12:00,
2013-10-01 12:17:00,72.6,50.5,28.85,NNE,23,0.0,0.0,46,0.00,,,0.00,WUHU216HW,2013-10-01 17:17:00,
2013-10-01 12:22:00,72.6,49.3,28.85,NNE,23,0.0,0.0,44,0.00,,,0.00,WUHU216HW,2013-10-01 17:22:00,
2013-10-01 12:27:00,73.0,49.7,28.85,NNE,23,0.0,0.0,44,0.00,,,0.00,WUHU216HW,2013-10-01 17:27:00,
2013-10-01 12:33:00,73.2,48.6,28.85,NNE,23,0.0,0.0,42,0.00,,,0.00,WUHU216HW,2013-10-01 17:33:00,
2013-10-01 12:38:00,73.2,48.6,28.85,NNE,23,0.0,0.0,42,0.00,,,0.00,WUHU216HW,2013-10-01 17:38:00,
2013-10-01 12:43:00,73.5,48.4,28.85,NNE,23,0.0,0.0,41,0.00,,,0.00,WUHU216HW,2013-10-01 17:43:00,
2013-10-01 12:48:00,73.9,49.3,28.85,NNE,23,0.0,0.0,42,0.00,,,0.00,WUHU216HW,2013-10-01 17:48:00,
2013-10-01 12:53:00,74.3,49.6,28.86,NNE,23,0.0,0.0,42,0.00,,,0.00,WUHU216HW,2013-10-01 17:53:00,
2013-10-01 12:58:00,74.6,48.7,28.86,NNE,23,0.0,0.0,40,0.00,,,0.00,WUHU216HW,2013-10-01 17:58:00,
2013-10-01 13:03:00,74.8,48.9,28.86,NNE,23,0.0,0.0,40,0.00,,,0.00,WUHU216HW,2013-10-01 18:03:00,
2013-10-01 13:08:00,74.8,48.2,28.86,NNE,23,0.0,0.0,39,0.00,,,0.00,WUHU216HW,2013-10-01 18:08:00,
2013-10-01 13:13:00,74.8,48.9,28.86,NNE,23,0.0,0.0,40,0.00,,,0.00,WUHU216HW,2013-10-01 18:13:00,
2013-10-01 13:18:00,74.8,48.9,28.86,NNE,23,0.0,0.0,40,0.00,,,0.00,WUHU216HW,2013-10-01 18:18:00,
2013-10-01 13:23:00,74.8,48.9,28.86,NNE,23,0.0,0.0,40,0.00,,,0.00,WUHU216HW,2013-10-01 18:23:00,
2013-10-01 13:28:00,74.8,49.5,28.87,NNE,23,0.0,0.0,41,0.00,,,0.00,WUHU216HW,2013-10-01 18:28:00,
2013-10-01 13:33:00,75.0,50.3,28.86,NNE,23,0.0,0.0,42,0.00,,,0.00,WUHU216HW,2013-10-01 18:33:00,
2013-10-01 13:38:00,75.0,50.3,28.86,NNE,23,0.0,0.0,42,0.00,,,0.00,WUHU216HW,2013-10-01 18:38:00,
2013-10-01 13:43:00,75.0,50.9,28.86,NNE,23,0.0,0.0,43,0.00,,,0.00,WUHU216HW,2013-10-01 18:43:00,
2013-10-01 13:48:00,75.0,50.3,28.86,NNE,23,0.0,0.0,42,0.00,,,0.00,WUHU216HW,2013-10-01 18:48:00,
2013-10-01 13:54:00,75.2,50.5,28.86,NNE,23,0.0,0.0,42,0.00,,,0.00,WUHU216HW,2013-10-01 18:54:00,
2013-10-01 13:59:00,75.3,50.6,28.86,NNE,23,0.0,0.0,42,0.00,,,0.00,WUHU216HW,2013-10-01 18:59:00,
2013-10-01 14:04:00,75.3,50.0,28.86,NNE,23,0.0,0.0,41,0.00,,,0.00,WUHU216HW,2013-10-01 19:04:00,
2013-10-01 14:09:00,75.5,51.4,28.86,NNE,23,0.0,0.0,43,0.00,,,0.00,WUHU216HW,2013-10-01 19:09:00,
2013-10-01 14:14:00,75.7,51.6,28.86,NNE,23,0.0,0.0,43,0.00,,,0.00,WUHU216HW,2013-10-01 19:14:00,
2013-10-01 14:19:00,75.9,51.7,28.86,NNE,23,0.0,0.0,43,0.00,,,0.00,WUHU216HW,2013-10-01 19:19:00,
2013-10-01 14:24:00,75.9,51.1,28.86,NNE,23,0.0,0.0,42,0.00,,,0.00,WUHU216HW,2013-10-01 19:24:00,
2013-10-01 14:29:00,76.1,51.3,28.86,NNE,23,0.0,0.0,42,0.00,,,0.00,WUHU216HW,2013-10-01 19:29:00,
2013-10-01 14:34:00,76.2,50.8,28.87,NNE,23,0.0,0.0,41,0.00,,,0.00,WUHU216HW,2013-10-01 19:34:00,
2013-10-01 14:39:00,76.4,51.6,28.87,NNE,23,0.0,0.0,42,0.00,,,0.00,WUHU216HW,2013-10-01 19:39:00,
2013-10-01 14:45:00,76.8,51.3,28.87,NNE,23,0.0,0.0,41,0.00,,,0.00,WUHU216HW,2013-10-01 19:45:00,
2013-10-01 14:50:00,76.8,50.7,28.87,NNE,23,0.0,0.0,40,0.00,,,0.00,WUHU216HW,2013-10-01 19:50:00,
2013-10-01 14:55:00,76.8,49.2,28.87,NNE,23,0.0,0.0,38,0.00,,,0.00,WUHU216HW,2013-10-01 19:55:00,
2013-10-01 15:00:00,76.8,48.4,28.87,NNE,23,0.0,0.0,37,0.00,,,0.00,WUHU216HW,2013-10-01 20:00:00,
2013-10-01 15:05:00,76.6,48.3,28.87,NNE,23,0.0,0.0,37,0.00,,,0.00,WUHU216HW,2013-10-01 20:05:00,
2013-10-01 15:10:00,76.8,48.4,28.87,NNE,23,0.0,0.0,37,0.00,,,0.00,WUHU216HW,2013-10-01 20:10:00,
2013-10-01 15:16:00,76.8,49.2,28.87,NNE,23,0.0,0.0,38,0.00,,,0.00,WUHU216HW,2013-10-01 20:16:00,
2013-10-01 15:21:00,76.8,48.4,28.87,NNE,23,0.0,0.0,37,0.00,,,0.00,WUHU216HW,2013-10-01 20:21:00,
2013-10-01 15:26:00,76.8,47.7,28.87,NNE,23,0.0,0.0,36,0.00,,,0.00,WUHU216HW,2013-10-01 20:26:00,
2013-10-01 15:31:00,76.6,47.5,28.87,NNE,23,0.0,0.0,36,0.00,,,0.00,WUHU216HW,2013-10-01 20:31:00,
2013-10-01 15:36:00,76.6,49.0,28.87,NNE,23,0.0,0.0,38,0.00,,,0.00,WUHU216HW,2013-10-01 20:36:00,
2013-10-01 15:41:00,76.2,47.9,28.87,NNE,23,0.0,0.0,37,0.00,,,0.00,WUHU216HW,2013-10-01 20:41:00,
2013-10-01 15:46:00,76.2,47.9,28.87,NNE,23,0.0,0.0,37,0.00,,,0.00,WUHU216HW,2013-10-01 20:46:00,
2013-10-01 15:51:00,76.1,47.0,28.87,NNE,23,0.0,0.0,36,0.00,,,0.00,WUHU216HW,2013-10-01 20:51:00,
2013-10-01 15:56:00,76.1,47.0,28.87,NNE,23,0.0,0.0,36,0.00,,,0.00,WUHU216HW,2013-10-01 20:56:00,
2013-10-01 16:01:00,76.1,46.9,28.87,NNE,23,0.0,0.0,36,0.00,,,0.00,WUHU216HW,2013-10-01 21:01:00,
2013-10-01 16:06:00,75.9,45.3,28.87,NNE,23,0.0,0.0,34,0.00,,,0.00,WUHU216HW,2013-10-01 21:06:00,
2013-10-01 16:11:00,75.9,45.3,28.87,NNE,23,0.0,0.0,34,0.00,,,0.00,WUHU216HW,2013-10-01 21:11:00,
2013-10-01 16:17:00,75.9,44.6,28.87,NNE,23,0.0,0.0,33,0.00,,,0.00,WUHU216HW,2013-10-01 21:17:00,
2013-10-01 16:22:00,75.9,44.6,28.88,NNE,23,0.0,0.0,33,0.00,,,0.00,WUHU216HW,2013-10-01 21:22:00,
2013-10-01 16:27:00,75.9,44.6,28.88,NNE,23,0.0,0.0,33,0.00,,,0.00,WUHU216HW,2013-10-01 21:27:00,
2013-10-01 16:32:00,75.7,45.2,28.88,NNE,23,0.0,0.0,33,0.00,,,0.00,WUHU216HW,2013-10-01 21:32:00,
2013-10-01 16:37:00,75.5,45.0,28.88,NNE,23,0.0,0.0,34,0.00,,,0.00,WUHU216HW,2013-10-01 21:37:00,
2013-10-01 16:42:00,75.5,46.5,28.88,NNE,23,0.0,0.0,36,0.00,,,0.00,WUHU216HW,2013-10-01 21:42:00,
2013-10-01 16:47:00,75.3,47.1,28.88,NNE,23,0.0,0.0,37,0.00,,,0.00,WUHU216HW,2013-10-01 21:47:00,
2013-10-01 16:52:00,75.2,46.2,28.89,NNE,23,0.0,0.0,36,0.00,,,0.00,WUHU216HW,2013-10-01 21:52:00,
2013-10-01 16:57:00,75.0,44.5,28.88,NNE,23,0.0,0.0,34,0.00,,,0.00,WUHU216HW,2013-10-01 21:57:00,
2013-10-01 17:02:00,75.0,42.3,28.89,NNE,23,0.0,0.0,31,0.00,,,0.00,WUHU216HW,2013-10-01 22:02:00,
2013-10-01 17:07:00,75.0,43.0,28.89,NNE,23,0.0,0.0,32,0.00,,,0.00,WUHU216HW,2013-10-01 22:07:00,
2013-10-01 17:12:00,75.0,43.0,28.89,NNE,23,0.0,0.0,32,0.00,,,0.00,WUHU216HW,2013-10-01 22:12:00,
2013-10-01 17:18:00,75.0,43.0,28.89,NNE,23,0.0,0.0,32,0.00,,,0.00,WUHU216HW,2013-10-01 22:18:00,
2013-10-01 17:23:00,74.8,42.9,28.89,NNE,23,0.0,0.0,32,0.00,,,0.00,WUHU216HW,2013-10-01 22:23:00,
2013-10-01 17:28:00,74.8,43.6,28.89,NNE,23,0.0,0.0,33,0.00,,,0.00,WUHU216HW,2013-10-01 22:28:00,
2013-10-01 17:33:00,74.4,43.3,28.89,NNE,23,0.0,0.0,33,0.00,,,0.00,WUHU216HW,2013-10-01 22:33:00,
2013-10-01 17:38:00,74.3,43.9,28.89,NNE,23,0.0,0.0,34,0.00,,,0.00,WUHU216HW,2013-10-01 22:38:00,
2013-10-01 17:43:00,74.1,44.5,28.89,NNE,23,0.0,0.0,35,0.00,,,0.00,WUHU216HW,2013-10-01 22:43:00,
2013-10-01 17:48:00,73.9,44.3,28.89,NNE,23,0.0,0.0,35,0.00,,,0.00,WUHU216HW,2013-10-01 22:48:00,
2013-10-01 17:53:00,73.7,44.2,28.89,NNE,23,0.0,0.0,35,0.00,,,0.00,WUHU216HW,2013-10-01 22:53:00,
2013-10-01 17:58:00,73.2,42.9,28.90,NNE,23,0.0,0.0,34,0.00,,,0.00,WUHU216HW,2013-10-01 22:58:00,
2013-10-01 18:03:00,73.0,42.9,28.90,NNE,23,0.0,0.0,34,0.00,,,0.00,WUHU216HW,2013-10-01 23:03:00,
2013-10-01 18:08:00,72.6,43.2,28.89,NNE,23,0.0,0.0,35,0.00,,,0.00,WUHU216HW,2013-10-01 23:08:00,
2013-10-01 18:14:00,72.3,42.2,28.89,NNE,23,0.0,0.0,34,0.00,,,0.00,WUHU216HW,2013-10-01 23:14:00,
2013-10-01 18:19:00,72.1,42.8,28.89,NNE,23,0.0,0.0,35,0.00,,,0.00,WUHU216HW,2013-10-01 23:19:00,
2013-10-01 18:20:00,71.9,41.9,28.89,NNE,23,0.0,0.0,34,0.00,,,0.00,WUHU216HW,2013-10-01 23:20:00,
2013-10-01 18:25:00,71.9,42.6,28.89,NNE,23,0.0,0.0,35,0.00,,,0.00,WUHU216HW,2013-10-01 23:25:00,
2013-10-01 18:30:00,71.7,42.4,28.89,NNE,23,0.0,0.0,35,0.00,,,0.00,WUHU216HW,2013-10-01 23:30:00,
2013-10-01 18:31:00,71.6,43.0,28.89,NNE,23,0.0,0.0,36,0.00,,,0.00,WUHU216HW,2013-10-01 23:31:00,
2013-10-01 18:36:00,71.4,42.9,28.89,NNE,23,0.0,0.0,36,0.00,,,0.00,WUHU216HW,2013-10-01 23:36:00,
2013-10-01 18:41:00,71.0,42.6,28.89,NNE,23,0.0,0.0,36,0.00,,,0.00,WUHU216HW,2013-10-01 23:41:00,
2013-10-01 18:46:00,70.3,42.6,28.89,NNE,23,0.0,0.0,37,0.00,,,0.00,WUHU216HW,2013-10-01 23:46:00,
2013-10-01 18:51:00,70.1,42.5,28.89,NNE,23,0.0,0.0,37,0.00,,,0.00,WUHU216HW,2013-10-01 23:51:00,
2013-10-01 18:56:00,69.8,42.2,28.89,NNE,23,0.0,0.0,37,0.00,,,0.00,WUHU216HW,2013-10-01 23:56:00,
2013-10-01 19:01:00,69.4,42.6,28.89,NNE,23,0.0,0.0,38,0.00,,,0.00,WUHU216HW,2013-10-02 00:01:00,
2013-10-01 19:07:00,69.0,43.0,28.89,NNE,23,0.0,0.0,39,0.00,,,0.00,WUHU216HW,2013-10-02 00:07:00,
2013-10-01 19:12:00,68.9,43.6,28.89,NNE,23,0.0,0.0,40,0.00,,,0.00,WUHU216HW,2013-10-02 00:12:00,
2013-10-01 19:17:00,68.5,43.2,28.89,NNE,23,0.0,0.0,40,0.00,,,0.00,WUHU216HW,2013-10-02 00:17:00,
2013-10-01 19:22:00,68.1,43.5,28.89,NNE,23,0.0,0.0,41,0.00,,,0.00,WUHU216HW,2013-10-02 00:22:00,
2013-10-01 19:28:00,67.8,43.2,28.90,NNE,23,0.0,0.0,41,0.00,,,0.00,WUHU216HW,2013-10-02 00:28:00,
2013-10-01 19:33:00,67.4,42.9,28.90,NNE,23,0.0,0.0,41,0.00,,,0.00,WUHU216HW,2013-10-02 00:33:00,
2013-10-01 19:38:00,67.2,43.9,28.90,NNE,23,0.0,0.0,43,0.00,,,0.00,WUHU216HW,2013-10-02 00:38:00,
2013-10-01 19:43:00,66.9,44.7,28.91,NNE,23,0.0,0.0,45,0.00,,,0.00,WUHU216HW,2013-10-02 00:43:00,
2013-10-01 19:48:00,66.3,44.9,28.91,NNE,23,0.0,0.0,46,0.00,,,0.00,WUHU216HW,2013-10-02 00:48:00,
2013-10-01 19:53:00,66.2,44.9,28.91,NNE,23,0.0,0.0,46,0.00,,,0.00,WUHU216HW,2013-10-02 00:53:00,
2013-10-01 19:58:00,66.0,45.1,28.91,NNE,23,0.0,0.0,47,0.00,,,0.00,WUHU216HW,2013-10-02 00:58:00,
2013-10-01 20:03:00,65.4,45.2,28.91,NNE,23,0.0,0.0,48,0.00,,,0.00,WUHU216HW,2013-10-02 01:03:00,
2013-10-01 20:08:00,65.1,45.4,28.91,NNE,23,0.0,0.0,49,0.00,,,0.00,WUHU216HW,2013-10-02 01:08:00,
2013-10-01 20:13:00,64.7,45.6,28.91,NNE,23,0.0,0.0,50,0.00,,,0.00,WUHU216HW,2013-10-02 01:13:00,
2013-10-01 20:19:00,64.2,45.1,28.91,NNE,23,0.0,0.0,50,0.00,,,0.00,WUHU216HW,2013-10-02 01:19:00,
2013-10-01 20:24:00,64.0,45.4,28.91,NNE,23,0.0,0.0,51,0.00,,,0.00,WUHU216HW,2013-10-02 01:24:00,
2013-10-01 20:29:00,63.6,44.6,28.91,NNE,23,0.0,0.0,50,0.00,,,0.00,WUHU216HW,2013-10-02 01:29:00,
2013-10-01 20:34:00,63.3,45.3,28.91,NNE,23,0.0,0.0,52,0.00,,,0.00,WUHU216HW,2013-10-02 01:34:00,
2013-10-01 20:39:00,63.1,45.1,28.92,NNE,23,0.0,0.0,52,0.00,,,0.00,WUHU216HW,2013-10-02 01:39:00,
2013-10-01 20:44:00,62.9,45.4,28.92,NNE,23,0.0,0.0,53,0.00,,,0.00,WUHU216HW,2013-10-02 01:44:00,
2013-10-01 20:49:00,62.6,45.1,28.92,NNE,23,0.0,0.0,53,0.00,,,0.00,WUHU216HW,2013-10-02 01:49:00,
2013-10-01 20:54:00,62.4,44.5,28.92,NNE,23,0.0,0.0,52,0.00,,,0.00,WUHU216HW,2013-10-02 01:54:00,
2013-10-01 20:59:00,62.2,43.8,28.92,NNE,23,0.0,0.0,51,0.00,,,0.00,WUHU216HW,2013-10-02 01:59:00,
2013-10-01 21:04:00,61.8,43.0,28.92,NNE,23,0.0,0.0,50,0.00,,,0.00,WUHU216HW,2013-10-02 02:04:00,
2013-10-01 21:09:00,61.7,42.8,28.92,NNE,23,0.0,0.0,50,0.00,,,0.00,WUHU216HW,2013-10-02 02:09:00,
2013-10-01 21:15:00,61.5,42.7,28.92,NNE,23,0.0,0.0,50,0.00,,,0.00,WUHU216HW,2013-10-02 02:15:00,
2013-10-01 21:20:00,61.3,42.5,28.92,NNE,23,0.0,0.0,50,0.00,,,0.00,WUHU216HW,2013-10-02 02:20:00,
2013-10-01 21:25:00,61.1,42.4,28.92,NNE,23,0.0,0.0,50,0.00,,,0.00,WUHU216HW,2013-10-02 02:25:00,
2013-10-01 21:30:00,61.1,42.4,28.93,NNE,23,0.0,0.0,50,0.00,,,0.00,WUHU216HW,2013-10-02 02:30:00,
2013-10-01 21:35:00,61.1,42.4,28.93,NNE,23,0.0,0.0,50,0.00,,,0.00,WUHU216HW,2013-10-02 02:35:00,
2013-10-01 21:40:00,60.9,43.2,28.93,NNE,23,0.0,0.0,52,0.00,,,0.00,WUHU216HW,2013-10-02 02:40:00,
2013-10-01 21:45:00,60.9,43.7,28.93,NNE,23,0.0,0.0,53,0.00,,,0.00,WUHU216HW,2013-10-02 02:45:00,
2013-10-01 21:50:00,60.4,43.6,28.93,NNE,23,0.0,0.0,54,0.00,,,0.00,WUHU216HW,2013-10-02 02:50:00,
2013-10-01 21:55:00,60.0,43.5,28.93,NNE,23,0.0,0.0,54,0.00,,,0.00,WUHU216HW,2013-10-02 02:55:00,
2013-10-01 22:00:00,59.7,43.4,28.93,NNE,23,0.0,0.0,55,0.00,,,0.00,WUHU216HW,2013-10-02 03:00:00,
2013-10-01 22:05:00,58.8,43.1,28.94,NNE,23,0.0,0.0,56,0.00,,,0.00,WUHU216HW,2013-10-02 03:05:00,
2013-10-01 22:10:00,58.8,43.1,28.93,NNE,23,0.0,0.0,56,0.00,,,0.00,WUHU216HW,2013-10-02 03:10:00,
2013-10-01 22:16:00,58.2,42.6,28.94,NNE,23,0.0,0.0,56,0.00,,,0.00,WUHU216HW,2013-10-02 03:16:00,
2013-10-01 22:21:00,57.5,42.4,28.94,NNE,23,0.0,0.0,57,0.00,,,0.00,WUHU216HW,2013-10-02 03:21:00,
2013-10-01 22:26:00,57.3,42.7,28.94,NNE,23,0.0,0.0,58,0.00,,,0.00,WUHU216HW,2013-10-02 03:26:00,
2013-10-01 22:31:00,57.3,42.7,28.94,NNE,23,0.0,0.0,58,0.00,,,0.00,WUHU216HW,2013-10-02 03:31:00,
2013-10-01 22:36:00,57.0,42.4,28.94,NNE,23,0.0,0.0,58,0.00,,,0.00,WUHU216HW,2013-10-02 03:36:00,
2013-10-01 22:41:00,57.0,42.8,28.94,NNE,23,0.0,0.0,59,0.00,,,0.00,WUHU216HW,2013-10-02 03:41:00,
2013-10-01 22:46:00,57.0,42.4,28.94,NNE,23,0.0,0.0,58,0.00,,,0.00,WUHU216HW,2013-10-02 03:46:00,
2013-10-01 22:51:00,57.0,42.8,28.94,NNE,23,0.0,0.0,59,0.00,,,0.00,WUHU216HW,2013-10-02 03:51:00,
2013-10-01 22:56:00,57.0,42.8,28.94,NNE,23,0.0,0.0,59,0.00,,,0.00,WUHU216HW,2013-10-02 03:56:00,
2013-10-01 23:01:00,56.8,42.6,28.95,NNE,23,0.0,0.0,59,0.00,,,0.00,WUHU216HW,2013-10-02 04:01:00,
2013-10-01 23:03:00,56.8,42.6,28.94,NNE,23,0.0,0.0,59,0.00,,,0.00,WUHU216HW,2013-10-02 04:03:00,
2013-10-01 23:08:00,56.4,42.3,28.95,NNE,23,0.0,0.0,59,0.00,,,0.00,WUHU216HW,2013-10-02 04:08:00,
2013-10-01 23:13:00,56.4,42.8,28.95,NNE,23,0.0,0.0,60,0.00,,,0.00,WUHU216HW,2013-10-02 04:13:00,
2013-10-01 23:18:00,56.4,42.8,28.95,NNE,23,0.0,0.0,60,0.00,,,0.00,WUHU216HW,2013-10-02 04:18:00,
2013-10-01 23:23:00,56.3,42.6,28.95,NNE,23,0.0,0.0,60,0.00,,,0.00,WUHU216HW,2013-10-02 04:23:00,
2013-10-01 23:28:00,56.3,42.6,28.95,NNE,23,0.0,0.0,60,0.00,,,0.00,WUHU216HW,2013-10-02 04:28:00,
2013-10-01 23:33:00,56.1,42.8,28.95,NNE,23,0.0,0.0,61,0.00,,,0.00,WUHU216HW,2013-10-02 04:33:00,
2013-10-01 23:38:00,55.9,42.6,28.95,NNE,23,0.0,0.0,61,0.00,,,0.00,WUHU216HW,2013-10-02 04:38:00,
2013-10-01 23:43:00,55.9,42.6,28.95,NNE,23,0.0,0.0,61,0.00,,,0.00,WUHU216HW,2013-10-02 04:43:00,
2013-10-01 23:48:00,55.7,42.4,28.95,NNE,23,0.0,0.0,61,0.00,,,0.00,WUHU216HW,2013-10-02 04:48:00,
2013-10-01 23:54:00,55.7,42.0,28.95,NNE,23,0.0,0.0,60,0.00,,,0.00,WUHU216HW,2013-10-02 04:54:00,
2013-10-01 23:59:00,55.9,42.2,28.95,NNE,23,0.0,0.0,60,0.00,,,0.00,WUHU216HW,2013-10-02 04:59:00,